When you browse on this site, cookies collect data to enhance your experience and personalize the content and advertising you see.
Visit our Privacy Policy to learn more. By continuing to use the site, you agree to this use of cookies and data.
  • In Hungary
  • List of Countries
  • For 7 days
  • Water Temperature
  • Satellite Maps
  • Weather Map
  • News
  • Weather Widgets
  • user-avatar
    Login

    Hourly Weather Karamsad

    Today, 24 April, Wednesday

    Time Temperature Precipitation Wind Pressure Humidity
    00:00 +35°C° 0 mm 3 mps 753 mmHg 26%
    01:00 +35°C° 0 mm 2 mps 753 mmHg 27%
    02:00 +34°C° 0 mm 2 mps 753 mmHg 28%
    03:00 +34°C° 0 mm 2 mps 753 mmHg 28%
    04:00 +32°C° 0 mm 1 mps 753 mmHg 28%
    05:00 +32°C° 0 mm 2 mps 753 mmHg 28%
    06:00 +34°C° 0 mm 2 mps 754 mmHg 30%
    07:00 +35°C° 0 mm 3 mps 754 mmHg 32%
    08:00 +36°C° 0 mm 4 mps 754 mmHg 34%
    09:00 +38°C° 0 mm 4 mps 754 mmHg 29%
    10:00 +41°C° 0 mm 4 mps 754 mmHg 25%
    11:00 +43°C° 0 mm 3 mps 754 mmHg 19%
    12:00 +44°C° 0 mm 3 mps 753 mmHg 17%
    13:00 +46°C° 0 mm 3 mps 753 mmHg 14%
    14:00 +47°C° 0 mm 3 mps 752 mmHg 12%
    15:00 +47°C° 0 mm 3 mps 752 mmHg 11%
    16:00 +47°C° 0 mm 4 mps 752 mmHg 11%
    17:00 +46°C° 0 mm 3 mps 751 mmHg 11%
    18:00 +44°C° 0 mm 3 mps 752 mmHg 13%
    19:00 +42°C° 0 mm 3 mps 752 mmHg 15%
    20:00 +39°C° 0 mm 2 mps 752 mmHg 16%
    21:00 +39°C° 0 mm 2 mps 752 mmHg 18%
    22:00 +38°C° 0 mm 3 mps 752 mmHg 20%
    23:00 +37°C° 0 mm 3 mps 753 mmHg 22%

    Tomorrow, 25 April, Thursday

    Time Temperature Precipitation Wind Pressure Humidity
    00:00 +36°C° 0 mm 4 mps 752 mmHg 22%
    01:00 +36°C° 0 mm 4 mps 752 mmHg 22%
    02:00 +35°C° 0 mm 5 mps 752 mmHg 23%
    03:00 +34°C° 0 mm 5 mps 752 mmHg 27%
    04:00 +34°C° 0 mm 4 mps 752 mmHg 31%
    05:00 +33°C° 0 mm 3 mps 752 mmHg 34%
    06:00 +34°C° 0 mm 3 mps 753 mmHg 34%
    07:00 +34°C° 0 mm 3 mps 753 mmHg 33%
    08:00 +35°C° 0 mm 3 mps 754 mmHg 32%
    09:00 +38°C° 0 mm 3 mps 754 mmHg 27%
    10:00 +40°C° 0 mm 3 mps 754 mmHg 21%
    11:00 +43°C° 0 mm 4 mps 754 mmHg 15%
    12:00 +45°C° 0 mm 4 mps 754 mmHg 14%
    13:00 +47°C° 0 mm 4 mps 753 mmHg 12%
    14:00 +48°C° 0 mm 5 mps 752 mmHg 10%
    15:00 +48°C° 0 mm 5 mps 752 mmHg 11%
    16:00 +48°C° 0 mm 5 mps 752 mmHg 11%
    17:00 +47°C° 0 mm 5 mps 751 mmHg 11%
    18:00 +45°C° 0 mm 5 mps 752 mmHg 13%
    19:00 +42°C° 0 mm 4 mps 752 mmHg 15%
    20:00 +39°C° 0 mm 3 mps 752 mmHg 17%
    21:00 +38°C° 0 mm 3 mps 752 mmHg 20%
    22:00 +37°C° 0 mm 2 mps 753 mmHg 22%
    23:00 +36°C° 0 mm 2 mps 753 mmHg 25%

    Day after tomorrow, 26 April, Friday

    Time Temperature Precipitation Wind Pressure Humidity
    00:00 +35°C° 0 mm 2 mps 752 mmHg 29%
    01:00 +35°C° 0 mm 2 mps 752 mmHg 33%
    02:00 +34°C° 0 mm 3 mps 752 mmHg 37%
    03:00 +34°C° 0 mm 3 mps 752 mmHg 41%
    04:00 +33°C° 0 mm 3 mps 752 mmHg 45%
    05:00 +31°C° 0 mm 3 mps 752 mmHg 48%
    06:00 +34°C° 0 mm 4 mps 752 mmHg 42%
    07:00 +35°C° 0 mm 4 mps 752 mmHg 36%
    08:00 +37°C° 0 mm 5 mps 753 mmHg 31%
    09:00 +41°C° 0 mm 5 mps 753 mmHg 25%
    10:00 +44°C° 0 mm 6 mps 753 mmHg 19%
    11:00 +47°C° 0 mm 6 mps 753 mmHg 13%
    12:00 +48°C° 0 mm 5 mps 752 mmHg 12%
    13:00 +49°C° 0 mm 5 mps 751 mmHg 11%
    14:00 +50°C° 0 mm 5 mps 751 mmHg 9%
    15:00 +50°C° 0 mm 5 mps 750 mmHg 9%
    16:00 +49°C° 0 mm 5 mps 750 mmHg 9%
    17:00 +49°C° 0 mm 5 mps 749 mmHg 9%
    18:00 +47°C° 0 mm 5 mps 750 mmHg 10%
    19:00 +45°C° 0 mm 5 mps 751 mmHg 11%
    20:00 +42°C° 0 mm 5 mps 751 mmHg 12%
    21:00 +41°C° 0 mm 4 mps 752 mmHg 13%
    22:00 +40°C° 0 mm 4 mps 752 mmHg 13%
    23:00 +38°C° 0 mm 3 mps 752 mmHg 13%

    27 April, Saturday

    Time Temperature Precipitation Wind Pressure Humidity
    00:00 +37°C° 0 mm 3 mps 752 mmHg 14%
    01:00 +37°C° 0 mm 3 mps 752 mmHg 15%
    02:00 +36°C° 0 mm 3 mps 751 mmHg 16%
    03:00 +35°C° 0 mm 3 mps 751 mmHg 19%
    04:00 +34°C° 0 mm 3 mps 751 mmHg 23%
    05:00 +33°C° 0 mm 3 mps 751 mmHg 26%
    06:00 +35°C° 0 mm 4 mps 751 mmHg 26%
    07:00 +36°C° 0 mm 5 mps 752 mmHg 27%
    08:00 +39°C° 0 mm 5 mps 752 mmHg 27%
    09:00 +42°C° 0 mm 5 mps 752 mmHg 22%
    10:00 +46°C° 0 mm 6 mps 752 mmHg 17%
    11:00 +49°C° 0 mm 6 mps 752 mmHg 12%
    12:00 +49°C° 0 mm 6 mps 751 mmHg 10%
    13:00 +51°C° 0 mm 6 mps 750 mmHg 9%
    14:00 +52°C° 0 mm 6 mps 750 mmHg 8%
    15:00 +52°C° 0 mm 6 mps 749 mmHg 8%
    16:00 +51°C° 0 mm 6 mps 749 mmHg 8%
    17:00 +51°C° 0 mm 6 mps 748 mmHg 8%
    18:00 +47°C° 0 mm 5 mps 749 mmHg 9%
    19:00 +45°C° 0 mm 5 mps 750 mmHg 10%
    20:00 +42°C° 0 mm 4 mps 750 mmHg 11%
    21:00 +41°C° 0 mm 4 mps 751 mmHg 12%
    22:00 +40°C° 0 mm 4 mps 751 mmHg 14%
    23:00 +38°C° 0 mm 3 mps 751 mmHg 15%

    28 April, Sunday

    Time Temperature Precipitation Wind Pressure Humidity
    00:00 +37°C° 0 mm 3 mps 751 mmHg 16%
    01:00 +37°C° 0 mm 3 mps 750 mmHg 16%
    02:00 +36°C° 0 mm 3 mps 750 mmHg 17%
    03:00 +35°C° 0 mm 3 mps 750 mmHg 19%
    04:00 +34°C° 0 mm 3 mps 750 mmHg 21%
    05:00 +33°C° 0 mm 3 mps 750 mmHg 23%
    06:00 +35°C° 0 mm 4 mps 750 mmHg 23%
    07:00 +36°C° 0 mm 5 mps 751 mmHg 23%
    08:00 +39°C° 0 mm 6 mps 751 mmHg 23%
    09:00 +42°C° 0 mm 6 mps 751 mmHg 19%
    10:00 +46°C° 0 mm 5 mps 751 mmHg 14%
    11:00 +49°C° 0 mm 5 mps 751 mmHg 10%
    12:00 +50°C° 0 mm 5 mps 750 mmHg 9%
    13:00 +52°C° 0 mm 5 mps 749 mmHg 7%
    14:00 +52°C° 0 mm 4 mps 748 mmHg 6%
    15:00 +52°C° 0 mm 5 mps 748 mmHg 6%
    16:00 +52°C° 0 mm 5 mps 748 mmHg 6%
    17:00 +52°C° 0 mm 5 mps 747 mmHg 6%
    18:00 +48°C° 0 mm 5 mps 748 mmHg 7%
    19:00 +46°C° 0 mm 5 mps 748 mmHg 8%
    20:00 +43°C° 0 mm 5 mps 749 mmHg 9%
    21:00 +41°C° 0 mm 5 mps 749 mmHg 10%
    22:00 +40°C° 0 mm 4 mps 749 mmHg 11%
    23:00 +38°C° 0 mm 3 mps 749 mmHg 12%

    29 April, Monday

    Time Temperature Precipitation Wind Pressure Humidity
    00:00 +38°C° 0 mm 3 mps 749 mmHg 12%
    01:00 +37°C° 0 mm 3 mps 749 mmHg 13%
    02:00 +36°C° 0 mm 3 mps 748 mmHg 13%
    03:00 +35°C° 0 mm 3 mps 748 mmHg 16%
    04:00 +34°C° 0 mm 3 mps 748 mmHg 18%
    05:00 +33°C° 0 mm 3 mps 748 mmHg 20%
    06:00 +35°C° 0 mm 4 mps 749 mmHg 20%
    07:00 +36°C° 0 mm 4 mps 750 mmHg 20%
    08:00 +39°C° 0 mm 5 mps 750 mmHg 20%
    09:00 +41°C° 0 mm 4 mps 750 mmHg 16%
    10:00 +44°C° 0 mm 4 mps 750 mmHg 12%
    11:00 +48°C° 0 mm 4 mps 750 mmHg 9%
    12:00 +49°C° 0 mm 4 mps 749 mmHg 8%
    13:00 +50°C° 0 mm 4 mps 748 mmHg 7%
    14:00 +51°C° 0 mm 4 mps 747 mmHg 6%
    15:00 +51°C° 0 mm 4 mps 747 mmHg 6%
    16:00 +50°C° 0 mm 5 mps 747 mmHg 6%
    17:00 +50°C° 0 mm 5 mps 747 mmHg 6%
    18:00 +47°C° 0 mm 4 mps 747 mmHg 7%
    19:00 +44°C° 0 mm 3 mps 748 mmHg 9%
    20:00 +40°C° 0 mm 3 mps 749 mmHg 10%
    21:00 +39°C° 0 mm 3 mps 749 mmHg 14%
    22:00 +38°C° 0 mm 2 mps 749 mmHg 17%
    23:00 +37°C° 0 mm 2 mps 749 mmHg 20%
    Show more